Location: Newark
(41.0400°S, 62.7845°W)
Time: 01:51:59
(UTC+00:00)

Vanguard 2 Rocket - Pass Details

Date: 02 December 2021
Orbit: 554 x 3325 km, 32.9° (Epoch: 21 January)

Event Time Altitude Azimuth Distance (km) Brightness Sun altitude
Rises 07:48:51 0° 328° (NNW) 7,298 - -7.7°
Exits shadow 07:50:34 - 330° (NNW) 6,989 10.8 -7.5°
Reaches altitude 10° 07:54:45 10° 336° (NNW) 6,245 10.6 -6.8°
Maximum altitude 08:10:24 32° 29° (NNE) 4,089 10.2 -4.4°
Drops below altitude 10° 08:22:02 10° 84° (E) 4,670 11.4 -2.6°
Sets 08:25:37 0° 94° (E) 5,303 12.1 -2.0°
